Uvalde, TX

7:41 PM CDT on March 30, 2017 (GMT -0500)
Garner

Weather History for KUVA - March, 2013

Change the Weather History Date:

Wednesday, March 6, 2013

  Actual Average (KHDO) Record (KHDO)
Temperature  
Mean Temperature 48 °F -  
Max Temperature 60 °F 68 °F 86 °F (2009)
Min Temperature 36 °F 45 °F 26 °F (2015)
Degree Days  
Heating Degree Days 17    
Moisture  
Dew Point 12 °F    
Average Humidity 23    
Maximum Humidity 36    
Minimum Humidity 14    
Precipitation  
Precipitation 0.00 in - - ()
Sea Level Pressure  
Sea Level Pressure 30.32 in    
Wind  
Wind Speed 7 mph (East)    
Max Wind Speed 14 mph    
Max Gust Speed 24 mph    
Visibility 10 miles    
Events      
Averages and records for this station are not official NWS values.
T = Trace of Precipitation, MM = Missing Value Source: NWS Daily Summary

Daily Weather History Graph

Daily Weather History Graph

Search for Another Location

Airport or City:

Trip Planner

Search our weather history database for the weather conditions in past years. The results will help you decide how hot, cold, wet, or windy it might be!

Date:

Astronomy

Mar. 06, 2013 Rise Set
Actual Time 6:58 AM CST 6:42 PM CST
Civil Twilight 6:34 AM CST 7:05 PM CST
Nautical Twilight 6:07 AM CST 7:33 PM CST
Astronomical Twilight 5:39 AM CST 8:00 PM CST
Moon 2:50 AM CST (3/6) 1:44 PM CST (3/6)
Length of Visible Light 12h 30m
Length of Day
11h 43m
Waning Crescent, 29% of the Moon is Illuminated
Mar 6
Waning Crescent
Mar 11
New
Mar 19
First Quarter
Mar 27
Full
Apr 2
Last Quarter

Hourly Weather History & Observations

Time (CST) Temp. Windchill Dew Point Humidity Pressure Visibility Wind Dir Wind Speed Gust Speed Precip Events Conditions
12:15 AM 46.8 °F - 16.7 °F 30% 30.35 in 10.0 mi NNE 6.9 mph - N/A   Clear
12:35 AM 45.1 °F 40.8 °F 15.3 °F 30% 30.35 in 10.0 mi NE 8.1 mph - N/A   Clear
12:55 AM 45.0 °F 40.1 °F 14.9 °F 30% 30.35 in 10.0 mi NE 9.2 mph - N/A   Clear
1:15 AM 42.8 °F 38.0 °F 13.1 °F 30% 30.35 in 10.0 mi NE 8.1 mph - N/A   Clear
1:35 AM 42.3 °F 38.6 °F 12.6 °F 30% 30.35 in 10.0 mi NE 5.8 mph - N/A   Clear
1:55 AM 42.1 °F 38.4 °F 11.3 °F 29% 30.35 in 10.0 mi NE 5.8 mph - N/A   Clear
2:15 AM 40.3 °F 36.3 °F 12.2 °F 32% 30.34 in 10.0 mi NE 5.8 mph - N/A   Clear
2:35 AM 40.1 °F 35.3 °F 12.4 °F 32% 30.35 in 10.0 mi NE 6.9 mph - N/A   Clear
2:55 AM 38.8 °F 35.4 °F 11.5 °F 33% 30.34 in 10.0 mi NE 4.6 mph - N/A   Clear
3:15 AM 38.8 °F 34.6 °F 12.2 °F 34% 30.34 in 10.0 mi NE 5.8 mph - N/A   Clear
3:55 AM 38.5 °F 36.1 °F 12.2 °F 34% 30.34 in 10.0 mi North 3.5 mph - N/A   Clear
4:15 AM 38.7 °F 36.3 °F 11.1 °F 32% 30.35 in 10.0 mi NNE 3.5 mph - N/A   Clear
4:35 AM 38.8 °F - 9.5 °F 30% 30.36 in 10.0 mi Calm Calm - N/A   Clear
4:55 AM 37.6 °F - 10.2 °F 32% 30.35 in 10.0 mi Calm Calm - N/A   Clear
5:55 AM 37.6 °F 35.1 °F 10.0 °F 32% 30.37 in 10.0 mi NE 3.5 mph - N/A   Clear
6:35 AM 36.5 °F 32.7 °F 11.5 °F 36% 30.39 in 10.0 mi East 4.6 mph - N/A   Clear
6:55 AM 38.8 °F 35.4 °F 10.6 °F 31% 30.39 in 10.0 mi East 4.6 mph - N/A   Clear
7:15 AM 41.0 °F 36.4 °F 10.2 °F 28% 30.40 in 10.0 mi East 6.9 mph - N/A   Clear
7:35 AM 41.0 °F 39.0 °F 10.2 °F 28% 30.41 in 10.0 mi ESE 3.5 mph - N/A   Clear
7:55 AM 40.6 °F 35.4 °F 10.4 °F 29% 30.40 in 10.0 mi East 8.1 mph - N/A   Clear
8:15 AM 41.4 °F 36.8 °F 10.6 °F 28% 30.41 in 10.0 mi East 6.9 mph - N/A   Clear
8:35 AM 42.6 °F 39.0 °F 11.8 °F 29% 30.41 in 10.0 mi East 5.8 mph - N/A   Clear
8:55 AM 47.7 °F - 12.7 °F 25% 30.42 in 10.0 mi ENE 10.4 mph - N/A   Clear
9:15 AM 48.9 °F - 13.1 °F 24% 30.43 in 10.0 mi ENE 11.5 mph - N/A   Clear
9:35 AM 52.7 °F - 13.8 °F 21% 30.44 in 10.0 mi East 9.2 mph - N/A   Clear
9:55 AM 52.7 °F - 12.7 °F 20% 30.44 in 10.0 mi East 13.8 mph 17.3 mph N/A   Clear
10:15 AM 52.9 °F - 11.5 °F 19% 30.44 in 10.0 mi East 12.7 mph 16.1 mph N/A   Clear
10:35 AM 54.3 °F - 12.2 °F 19% 30.44 in 10.0 mi East 10.4 mph - N/A   Clear
10:55 AM 55.4 °F - 11.5 °F 17% 30.43 in 10.0 mi ESE 10.4 mph 16.1 mph N/A   Clear
11:15 AM 55.4 °F - 12.6 °F 18% 30.43 in 10.0 mi East 11.5 mph - N/A   Clear
11:35 AM 56.8 °F - 11.3 °F 16% 30.42 in 10.0 mi ESE 8.1 mph - N/A   Clear
11:55 AM 57.7 °F - 10.8 °F 16% 30.40 in 10.0 mi ESE 8.1 mph - N/A   Clear
12:15 PM 58.3 °F - 9.9 °F 15% 30.38 in 10.0 mi East 12.7 mph 24.2 mph N/A   Clear
12:35 PM 58.6 °F - 10.0 °F 15% 30.36 in 10.0 mi SSE 10.4 mph 19.6 mph N/A   Clear
12:55 PM 58.5 °F - 8.6 °F 14% 30.36 in 10.0 mi SSE 9.2 mph - N/A   Clear
1:15 PM 57.7 °F - 10.0 °F 15% 30.35 in 10.0 mi ESE 8.1 mph - N/A   Clear
1:35 PM 57.9 °F - 9.9 °F 15% 30.34 in 10.0 mi SSE 8.1 mph - N/A   Clear
1:55 PM 57.7 °F - 9.1 °F 15% 30.33 in 10.0 mi SSE 4.6 mph - N/A   Clear
2:15 PM 57.7 °F - 10.6 °F 15% 30.31 in 10.0 mi SSE 4.6 mph - N/A   Clear
2:35 PM 57.7 °F - 11.5 °F 16% 30.30 in 10.0 mi SW 6.9 mph - N/A   Clear
2:55 PM 57.7 °F - 12.0 °F 16% 30.29 in 10.0 mi SSW 4.6 mph - N/A   Clear
3:15 PM 58.1 °F - 12.7 °F 17% 30.27 in 10.0 mi SSE 8.1 mph - N/A   Clear
3:35 PM 57.7 °F - 12.0 °F 16% 30.26 in 10.0 mi South 6.9 mph - N/A   Clear
3:55 PM 58.8 °F - 12.0 °F 16% 30.26 in 10.0 mi South 5.8 mph - N/A   Clear
4:15 PM 59.9 °F - 11.1 °F 15% 30.25 in 10.0 mi South 8.1 mph - N/A   Clear
4:35 PM 60.3 °F - 10.2 °F 14% 30.24 in 10.0 mi ESE 5.8 mph - N/A   Clear
4:55 PM 60.3 °F - 10.9 °F 14% 30.25 in 10.0 mi SSE 4.6 mph - N/A   Clear
5:15 PM 59.4 °F - 11.8 °F 15% 30.25 in 10.0 mi South 4.6 mph - N/A   Clear
5:35 PM 59.0 °F - 11.3 °F 15% 30.24 in 10.0 mi SE 4.6 mph - N/A   Clear
5:55 PM 59.0 °F - 10.8 °F 15% 30.23 in 10.0 mi ESE 8.1 mph - N/A   Clear
6:15 PM 58.1 °F - 11.8 °F 16% 30.22 in 10.0 mi ESE 8.1 mph - N/A   Clear
6:35 PM 57.7 °F - 11.8 °F 16% 30.23 in 10.0 mi ESE 5.8 mph - N/A   Clear
6:55 PM 57.7 °F - 12.2 °F 17% 30.23 in 10.0 mi ESE 5.8 mph - N/A   Clear
7:15 PM 55.4 °F - 11.1 °F 17% 30.23 in 10.0 mi ESE 5.8 mph - N/A   Clear
7:35 PM 54.0 °F - 12.2 °F 19% 30.23 in 10.0 mi ESE 4.6 mph - N/A   Clear
7:55 PM 52.7 °F - 12.2 °F 20% 30.24 in 10.0 mi Calm Calm - N/A   Clear
8:15 PM 52.7 °F - 14.0 °F 22% 30.24 in 10.0 mi ESE 3.5 mph - N/A   Clear
8:35 PM 50.2 °F - 14.5 °F 24% 30.24 in 10.0 mi East 3.5 mph - N/A   Clear
8:55 PM 50.2 °F - 14.9 °F 25% 30.25 in 10.0 mi East 3.5 mph - N/A   Clear
9:15 PM 49.1 °F - 15.1 °F 26% 30.24 in 10.0 mi East 5.8 mph - N/A   Clear
9:35 PM 47.7 °F - 14.9 °F 27% 30.24 in 10.0 mi East 5.8 mph - N/A   Clear
9:55 PM 47.7 °F - 15.1 °F 27% 30.24 in 10.0 mi East 6.9 mph - N/A   Clear
10:15 PM 47.7 °F - 16.5 °F 29% 30.23 in 10.0 mi East 6.9 mph - N/A   Clear
10:35 PM 45.1 °F 42.0 °F 14.9 °F 30% 30.23 in 10.0 mi East 5.8 mph - N/A   Clear
10:55 PM 45.1 °F 42.0 °F 15.4 °F 30% 30.22 in 10.0 mi East 5.8 mph - N/A   Clear
11:15 PM 45.1 °F 42.0 °F 15.3 °F 30% 30.22 in 10.0 mi East 5.8 mph - N/A   Clear
11:35 PM 45.1 °F 42.0 °F 15.4 °F 30% 30.21 in 10.0 mi East 5.8 mph - N/A   Clear
11:55 PM 46.4 °F 44.3 °F 17.2 °F 31% 30.21 in 10.0 mi ENE 4.6 mph - N/A   Clear